Location: Ahausen
(50.4985°N, 8.2722°E)
Time: 10:14:04
(UTC+00:00)

Okean 2 Rocket - Pass Details

Date: 18 September 2020
Orbit: 616 x 642 km, 82.5° (Epoch: 25 October)

Event Time Altitude Azimuth Distance (km) Brightness Sun altitude
Rises 18:04:12 0° 152° (SSE) 2,935 6.2 -5.7°
Reaches altitude 10° 18:06:48 10° 138° (SE) 2,028 5.2 -6.1°
Maximum altitude 18:10:18 23° 87° (E) 1,371 4.3 -6.7°
Drops below altitude 10° 18:13:48 10° 35° (NE) 2,030 5.5 -7.2°
Sets 18:16:25 0° 21° (NNE) 2,939 6.4 -7.6°
